Location: Unspecified
(35.6961°N, 0.0000°E)
Time: 14:02:58
(UTC+00:00)

Transit 2A Rocket - Visible Passes

Search period start: 23 October 2019 00:00
Search period end: 02 November 2019 00:00
Orbit: 594 x 909 km, 66.7° (Epoch: 22 October)

Date Brightness Start Highest point End Pass type
(mag) Time Alt. Az. Time Alt. Az. Time Alt. Az.
23 Oct 7.2 03:08:09 20° ENE 03:08:09 20° ENE 03:09:56 10° NE visible
23 Oct 5.7 04:48:07 29° WNW 04:48:11 29° WNW 04:52:20 10° N visible
24 Oct 6.0 04:07:37 31° N 04:07:37 31° N 04:10:14 10° NNE visible
25 Oct 7.2 03:26:57 16° NNE 03:26:57 16° NNE 03:27:50 10° NNE visible
25 Oct 6.8 05:06:54 11° NW 05:06:54 11° NW 05:07:42 10° NNW visible
26 Oct 6.9 04:26:05 13° NNW 04:26:05 13° NNW 04:26:45 10° N visible
